Powrót do katalogu

OPS 4682 DEB

AktywnyPO
NORAD 38452·DEBRIS·🇺🇸 United States

Wystrzelony Apr 3, 1965 z Vandenberg Space Force Base

Loading…

Następne Przeloty (najbliższe 24 godziny)

TLE

ŚwieżeSource: Space-Track

Epoka: Sep 14, 2026, 06:40 UTC

1 38452U 65027FH  26257.27826793  .00000137  00000-0  47064-3 0  9993
2 38452  90.2559   5.5968 0013755 290.8619  69.1027 12.94014879634624

Śledź OPS 4682 DEB w czasie rzeczywistym z AllMySat

Download on the App Store